Location: ????????
(60.5616°N, 46.8254°E)
Time: 15:36:03
(UTC+00:00)

MetOp-A - Pass Details

Date: 18 February 2020
Orbit: 819 x 821 km, 98.5° (Epoch: 08 April)

Event Time Altitude Azimuth Distance (km) Brightness Sun altitude
Exits shadow 16:52:50 26° 172° (S) 1,579 5.4 -23.0°
Maximum altitude 16:55:58 75° 254° (WSW) 858 4.2 -23.4°
Drops below altitude 10° 17:01:22 10° 340° (NNW) 2,435 7.1 -24.0°
Sets 17:03:45 0° 342° (NNW) 3,372 7.9 -24.3°
